• In Uzbekistan
  • List of Countries
  • For 7 days
  • Water Temperature
  • Satellite Maps
  • Weather Map
  • Weather Widgets
  • user-avatar
    Login

    Hourly Weather Shusha

    Today, 22 January, Sunday

    Time Temperature Precipitation Wind Pressure Humidity
    00:00 -6°C° 0 mm 1 mps 660 mmHg 83%
    01:00 -6°C° 0 mm 1 mps 659 mmHg 83%
    02:00 -6°C° 0 mm 1 mps 659 mmHg 82%
    03:00 -6°C° 0 mm 1 mps 659 mmHg 78%
    04:00 -7°C° 0 mm 1 mps 659 mmHg 78%
    05:00 -7°C° 0 mm 1 mps 659 mmHg 77%
    06:00 -7°C° 0 mm 1 mps 659 mmHg 77%
    07:00 -6°C° 0 mm 1 mps 659 mmHg 72%
    08:00 -3°C° 0 mm 1 mps 660 mmHg 67%
    09:00 -2°C° 0 mm 1 mps 660 mmHg 63%
    10:00 -1°C° 0 mm 1 mps 660 mmHg 59%
    11:00 0°C° 0 mm 1 mps 660 mmHg 55%
    12:00 +2°C° 0 mm 1 mps 660 mmHg 51%
    13:00 +1°C° 0 mm 2 mps 660 mmHg 52%
    14:00 +1°C° 0 mm 2 mps 660 mmHg 53%
    15:00 +1°C° 0 mm 2 mps 661 mmHg 54%
    16:00 0°C° 0 mm 1 mps 661 mmHg 61%
    17:00 -1°C° 0 mm 1 mps 661 mmHg 68%
    18:00 -3°C° 0 mm 1 mps 661 mmHg 75%
    19:00 -3°C° 0 mm 1 mps 662 mmHg 75%
    20:00 -3°C° 0 mm 1 mps 662 mmHg 75%
    21:00 -3°C° 0 mm 1 mps 663 mmHg 75%
    22:00 -4°C° 0 mm 1 mps 663 mmHg 75%
    23:00 -4°C° 0 mm 1 mps 663 mmHg 75%

    Tomorrow, 23 January, Monday

    Time Temperature Precipitation Wind Pressure Humidity
    00:00 -4°C° 0 mm 1 mps 664 mmHg 75%
    01:00 -6°C° 0 mm 1 mps 664 mmHg 76%
    02:00 -6°C° 0 mm 1 mps 664 mmHg 78%
    03:00 -7°C° 0 mm 1 mps 664 mmHg 79%
    04:00 -7°C° 0 mm 1 mps 664 mmHg 78%
    05:00 -7°C° 0 mm 1 mps 664 mmHg 76%
    06:00 -7°C° 0 mm 1 mps 664 mmHg 75%
    07:00 -6°C° 0 mm 1 mps 664 mmHg 71%
    08:00 -3°C° 0 mm 1 mps 665 mmHg 67%
    09:00 -2°C° 0 mm 1 mps 665 mmHg 63%
    10:00 -1°C° 0 mm 1 mps 666 mmHg 59%
    11:00 +1°C° 0 mm 1 mps 666 mmHg 55%
    12:00 +2°C° 0 mm 1 mps 666 mmHg 50%
    13:00 +2°C° 0 mm 1 mps 665 mmHg 52%
    14:00 +2°C° 0 mm 1 mps 665 mmHg 54%
    15:00 +2°C° 0 mm 1 mps 665 mmHg 55%
    16:00 0°C° 0 mm 1 mps 664 mmHg 64%
    17:00 -2°C° 0 mm 1 mps 664 mmHg 72%
    18:00 -5°C° 0 mm 0 mps 664 mmHg 80%
    19:00 -5°C° 0 mm 0 mps 664 mmHg 79%
    20:00 -6°C° 0 mm 1 mps 664 mmHg 78%
    21:00 -6°C° 0 mm 1 mps 664 mmHg 78%
    22:00 -6°C° 0 mm 1 mps 664 mmHg 78%
    23:00 -6°C° 0 mm 0 mps 664 mmHg 78%

    Day after tomorrow, 24 January, Tuesday

    Time Temperature Precipitation Wind Pressure Humidity
    00:00 -6°C° 0 mm 0 mps 664 mmHg 79%
    01:00 -6°C° 0 mm 0 mps 664 mmHg 79%
    02:00 -7°C° 0 mm 0 mps 664 mmHg 79%
    03:00 -7°C° 0 mm 0 mps 664 mmHg 79%
    04:00 -7°C° 0 mm 0 mps 664 mmHg 80%
    05:00 -7°C° 0 mm 0 mps 664 mmHg 80%
    06:00 -8°C° 0 mm 0 mps 664 mmHg 81%
    07:00 -6°C° 0 mm 0 mps 665 mmHg 74%
    08:00 -4°C° 0 mm 0 mps 666 mmHg 66%
    09:00 -2°C° 0 mm 0 mps 666 mmHg 59%
    10:00 0°C° 0 mm 1 mps 666 mmHg 54%
    11:00 +2°C° 0 mm 1 mps 666 mmHg 50%
    12:00 +3°C° 0 mm 1 mps 666 mmHg 45%
    13:00 +3°C° 0 mm 1 mps 666 mmHg 47%
    14:00 +3°C° 0 mm 1 mps 665 mmHg 49%
    15:00 +3°C° 0 mm 1 mps 665 mmHg 51%
    16:00 +1°C° 0 mm 1 mps 664 mmHg 60%
    17:00 -1°C° 0 mm 1 mps 663 mmHg 68%
    18:00 -3°C° 0 mm 1 mps 663 mmHg 77%
    19:00 -4°C° 0 mm 1 mps 663 mmHg 76%
    20:00 -4°C° 0 mm 1 mps 662 mmHg 76%
    21:00 -4°C° 0 mm 1 mps 662 mmHg 75%
    22:00 -4°C° 0 mm 1 mps 662 mmHg 72%
    23:00 -4°C° 0 mm 1 mps 662 mmHg 70%

    25 January, Wednesday

    Time Temperature Precipitation Wind Pressure Humidity
    00:00 -4°C° 0 mm 1 mps 661 mmHg 67%
    01:00 -6°C° 0 mm 2 mps 661 mmHg 65%
    02:00 -6°C° 0 mm 2 mps 660 mmHg 63%
    03:00 -6°C° 0 mm 2 mps 660 mmHg 61%
    04:00 -6°C° 0 mm 2 mps 659 mmHg 60%
    05:00 -6°C° 0 mm 2 mps 659 mmHg 59%
    06:00 -6°C° 0 mm 2 mps 659 mmHg 57%
    07:00 -5°C° 0 mm 2 mps 659 mmHg 53%
    08:00 -3°C° 0 mm 2 mps 659 mmHg 49%
    09:00 -1°C° 0 mm 2 mps 659 mmHg 45%
    10:00 +1°C° 0 mm 2 mps 659 mmHg 42%
    11:00 +4°C° 0 mm 1 mps 659 mmHg 39%
    12:00 +6°C° 0 mm 1 mps 658 mmHg 36%
    13:00 +6°C° 0 mm 1 mps 658 mmHg 39%
    14:00 +5°C° 0 mm 2 mps 657 mmHg 41%
    15:00 +4°C° 0 mm 2 mps 657 mmHg 43%
    16:00 +4°C° 0 mm 1 mps 656 mmHg 48%
    17:00 +2°C° 0 mm 1 mps 656 mmHg 53%
    18:00 0°C° 0 mm 1 mps 655 mmHg 58%
    19:00 0°C° 0 mm 1 mps 655 mmHg 60%
    20:00 0°C° 0 mm 1 mps 655 mmHg 61%
    21:00 0°C° 0 mm 1 mps 655 mmHg 63%
    22:00 -2°C° 0 mm 2 mps 654 mmHg 64%
    23:00 -3°C° 0 mm 2 mps 654 mmHg 66%

    26 January, Thursday

    Time Temperature Precipitation Wind Pressure Humidity
    00:00 -3°C° 0 mm 2 mps 654 mmHg 67%
    01:00 -3°C° 0 mm 2 mps 653 mmHg 68%
    02:00 -3°C° 0 mm 2 mps 653 mmHg 69%
    03:00 -3°C° 0 mm 2 mps 653 mmHg 69%
    04:00 -3°C° 0 mm 2 mps 653 mmHg 70%
    05:00 -1°C° 0 mm 1 mps 653 mmHg 72%
    06:00 -1°C° 0 mm 1 mps 653 mmHg 73%
    07:00 0°C° 0 mm 1 mps 653 mmHg 69%
    08:00 +1°C° 0 mm 1 mps 654 mmHg 65%
    09:00 +2°C° 0 mm 1 mps 654 mmHg 61%
    10:00 +3°C° 0 mm 1 mps 654 mmHg 58%
    11:00 +3°C° 0 mm 2 mps 654 mmHg 54%
    12:00 +4°C° 0 mm 2 mps 654 mmHg 51%
    13:00 +4°C° 0 mm 2 mps 654 mmHg 53%
    14:00 +4°C° 0 mm 2 mps 654 mmHg 54%
    15:00 +4°C° 0 mm 2 mps 653 mmHg 55%
    16:00 +2°C° 0.1 mm 2 mps 653 mmHg 62%
    17:00 +2°C° 0.1 mm 1 mps 654 mmHg 69%
    18:00 +1°C° 0.1 mm 1 mps 654 mmHg 76%
    19:00 0°C° 0.2 mm 1 mps 654 mmHg 77%
    20:00 0°C° 0.2 mm 1 mps 654 mmHg 78%
    21:00 0°C° 0.2 mm 1 mps 655 mmHg 79%
    22:00 0°C° 0.3 mm 1 mps 655 mmHg 81%
    23:00 -1°C° 0.3 mm 1 mps 655 mmHg 83%

    27 January, Friday

    Time Temperature Precipitation Wind Pressure Humidity
    00:00 -1°C° 0.3 mm 1 mps 655 mmHg 85%
    01:00 -1°C° 0.3 mm 1 mps 655 mmHg 87%
    02:00 -2°C° 0.3 mm 1 mps 655 mmHg 88%
    03:00 -2°C° 0.3 mm 1 mps 655 mmHg 90%
    04:00 -2°C° 0.4 mm 1 mps 655 mmHg 91%
    05:00 -2°C° 0.4 mm 1 mps 655 mmHg 91%
    06:00 -5°C° 0.4 mm 2 mps 655 mmHg 91%
    07:00 -5°C° 0.7 mm 2 mps 656 mmHg 91%
    08:00 -5°C° 0.7 mm 2 mps 656 mmHg 91%
    09:00 -5°C° 0.7 mm 2 mps 656 mmHg 91%
    10:00 -4°C° 0.7 mm 2 mps 656 mmHg 91%
    11:00 -4°C° 0.7 mm 2 mps 656 mmHg 90%
    12:00 -4°C° 0.7 mm 2 mps 656 mmHg 90%
    13:00 -4°C° 0.5 mm 2 mps 656 mmHg 91%
    14:00 -5°C° 0.5 mm 2 mps 655 mmHg 91%
    15:00 -5°C° 0.5 mm 2 mps 655 mmHg 92%
    16:00 -5°C° 0.5 mm 2 mps 655 mmHg 93%
    17:00 -4°C° 0.5 mm 1 mps 656 mmHg 94%
    18:00 -4°C° 0.5 mm 1 mps 656 mmHg 95%
    19:00 -4°C° 0.4 mm 1 mps 656 mmHg 95%
    20:00 -6°C° 0.4 mm 1 mps 656 mmHg 95%
    21:00 -6°C° 0.4 mm 1 mps 656 mmHg 94%
    22:00 -6°C° 0.3 mm 1 mps 656 mmHg 95%
    23:00 -7°C° 0.3 mm 1 mps 656 mmHg 95%
    Show more